Regional Weather Roundup
Issued by NWS

Home | Current Version | Previous Version | Graphics & Text | Print | Product List | Glossary On
Versions: 1 2 3 4 5 6 7 8 9 10 11 12 13 14 15 16 17 18 19 20 21 22 23 24 25 26 27 28 29 30 31 32 33 34 35 36 37 38 39 40 41 42 43 44 45 46 47 48 49 50
000
ASUS43 KTOP 260359
RWRKS

WEATHER ROUNDUP FOR KANSAS
NATIONAL WEATHER SERVICE GOODLAND KS
1100 PM CDT TUE JUL 25 2017

NOTE:  "FAIR" INDICATES FEW OR NO CLOUDS BELOW 12,000 FEET WITH NO
SIGNIFICANT WEATHER AND/OR OBSTRUCTIONS TO VISIBILITY.

KSZ001>006-013>018-027>032-041>047-260500-
NORTHWEST KANSAS

CITY           SKY/WX    TMP DP  RH WIND       PRES   REMARKS
GOODLAND       CLOUDY    83  63  50 W7        30.00R
HAYS           CLEAR     87  67  51 S16       29.92F
HILL CITY      PTCLDY    89  66  46 S17G23    29.92R
RUSSELL        CLEAR     88  66  48 S17       29.91F
$$

KSZ061>065-074>080-084>089-260500-
SOUTHWEST KANSAS

CITY           SKY/WX    TMP DP  RH WIND       PRES   REMARKS
DODGE CITY     PTCLDY    86  63  45 S15       29.97S
ELKHART          N/A     80  53  39 S10         N/A
GARDEN CITY    MOCLDY    84  62  47 S14       29.96R
GREAT BEND     CLOUDY    87  67  51 SE17      29.95S
LIBERAL        CLOUDY    86  62  44 S14       30.00R
$$

KSZ066>073-081>083-090>101-260500-
SOUTHEAST KANSAS

CITY           SKY/WX    TMP DP  RH WIND       PRES   REMARKS
CHANUTE        CLEAR     81  71  71 S7        30.04R
COFFEYVILLE    CLEAR     82  72  71 S6        30.03R
HUTCHINSON     CLEAR     84  67  56 SE12      29.98R
MEDICINE LODGE   N/A     88  65  46 S10       29.97R
NEWTON         CLEAR     82  69  64 SE12      30.01R
PARSONS        CLEAR     82  71  69 S5        30.05R
WICHITA INTL   CLEAR     85  70  60 SE13      29.99R
WICHITA JABRA  CLEAR     85  69  58 S15       30.00R
WINFIELD       CLEAR     85  70  60 S12       30.02R
$$

KSZ007>012-019>026-033>040-048>060-102>105-260500-
NORTHEAST KANSAS

CITY           SKY/WX    TMP DP  RH WIND       PRES   REMARKS
CONCORDIA      CLOUDY    83  71  67 SE14      29.94F
EMPORIA        CLEAR     82  71  69 SE12      30.01S
LAWRENCE       CLEAR     79  75  87 E6        30.01R
MANHATTAN      CLEAR     86  71  60 S13       29.97S
OLATHE IND     CLEAR     82  73  74 SE7       30.04R
OLATHE EXE     CLEAR     81  75  82 SE6       30.04R
SALINA         CLEAR     87  66  49 SE14      29.95S
TOPEKA BILLARD CLEAR     82  74  76 SE7       30.00R
TOPEKA FORBES  CLEAR     84  72  67 S10       30.01R
$$




USA.gov is the U.S. government's official web portal to all federal, state and local government web resources and services.